Wetterdaten: Woche 10.04.06 - 16.04.06 (KW15)
Datum Zeit Temperatur Luftfeuchte Niederschlag Windrichtung Wind
10.04.2006 00:00 2,8 C 97 % 1,0 l/m N 5,4 km/h (1 Bft)
10.04.2006 01:00 2,9 C 98 % 1,0 l/m N 11,3 km/h (2 Bft)
10.04.2006 02:00 2,4 C 98 % 0,0 l/m N 9,0 km/h (2 Bft)
10.04.2006 03:00 2,4 C 99 % 2,0 l/m N 10,3 km/h (2 Bft)
10.04.2006 04:00 2,6 C 100 % 1,0 l/m N 9,2 km/h (2 Bft)
10.04.2006 05:00 2,7 C 100 % 0,0 l/m N-NO 10,5 km/h (2 Bft)
10.04.2006 06:00 2,7 C 100 % 0,0 l/m N 11,7 km/h (2 Bft)
10.04.2006 07:00 2,6 C 100 % 0,0 l/m N 7,6 km/h (2 Bft)
10.04.2006 08:00 2,6 C 100 % 0,0 l/m N 7,7 km/h (2 Bft)
10.04.2006 09:00 2,3 C 100 % 0,0 l/m N-NW 9,1 km/h (2 Bft)
10.04.2006 10:00 1,7 C 100 % 1,0 l/m N 11,6 km/h (2 Bft)
10.04.2006 11:00 1,8 C 100 % 1,0 l/m N 10,0 km/h (2 Bft)
10.04.2006 12:00 2,3 C 100 % 1,0 l/m N 12,2 km/h (2 Bft)
10.04.2006 13:00 2,5 C 99 % 0,0 l/m N 12,1 km/h (2 Bft)
10.04.2006 14:00 2,8 C 97 % 0,0 l/m N 13,0 km/h (3 Bft)
10.04.2006 15:00 2,9 C 95 % 1,0 l/m N 15,7 km/h (3 Bft)
10.04.2006 16:00 2,6 C 95 % 0,0 l/m N 16,4 km/h (3 Bft)
10.04.2006 17:00 2,2 C 94 % 0,0 l/m N 17,6 km/h (3 Bft)
10.04.2006 18:00 1,6 C 96 % 1,0 l/m N-NW 13,6 km/h (3 Bft)
10.04.2006 19:00 0,8 C 98 % 0,0 l/m NW 3,3 km/h (1 Bft)
10.04.2006 20:00 0,6 C 100 % 0,0 l/m N 0,0 km/h (0 Bft)
10.04.2006 21:00 0,7 C 100 % 0,0 l/m N 0,0 km/h (0 Bft)
10.04.2006 22:00 0,6 C 100 % 0,0 l/m N 0,0 km/h (0 Bft)
10.04.2006 23:00 0,6 C 100 % 0,0 l/m N 0,0 km/h (0 Bft)
11.04.2006 00:00 0,6 C 100 % 0,0 l/m N 0,0 km/h (0 Bft)
11.04.2006 01:00 0,5 C 100 % 0,0 l/m N 0,0 km/h (0 Bft)
11.04.2006 02:00 0,5 C 100 % 0,0 l/m N 0,0 km/h (0 Bft)
11.04.2006 03:00 0,5 C 100 % 0,0 l/m N 0,0 km/h (0 Bft)
11.04.2006 04:00 0,4 C 100 % 0,0 l/m N 0,0 km/h (0 Bft)
11.04.2006 05:00 0,4 C 100 % 0,0 l/m N 0,0 km/h (0 Bft)
11.04.2006 06:00 0,4 C 100 % 0,0 l/m N 0,0 km/h (0 Bft)
11.04.2006 07:00 0,6 C 100 % 0,0 l/m N 0,0 km/h (0 Bft)
11.04.2006 08:00 0,9 C 100 % 0,0 l/m N 0,0 km/h (0 Bft)
11.04.2006 09:00 1,3 C 100 % 0,0 l/m N 8,1 km/h (2 Bft)
11.04.2006 10:00 1,6 C 94 % 0,0 l/m N-NW 12,6 km/h (3 Bft)
11.04.2006 11:00 2,2 C 90 % 0,0 l/m N-NW 8,5 km/h (2 Bft)
11.04.2006 12:00 2,4 C 83 % 1,0 l/m N 10,9 km/h (2 Bft)
11.04.2006 13:00 2,3 C 82 % 3,0 l/m N 9,7 km/h (2 Bft)
11.04.2006 14:00 2,7 C 82 % 1,0 l/m N 7,9 km/h (2 Bft)
11.04.2006 15:00 3,3 C 76 % 2,0 l/m NW 10,8 km/h (2 Bft)
11.04.2006 16:00 3,6 C 69 % 3,0 l/m W-NW 4,9 km/h (1 Bft)
11.04.2006 17:00 5,0 C 57 % 3,0 l/m W 4,1 km/h (1 Bft)
11.04.2006 18:00 5,0 C 55 % 1,0 l/m W-SW 5,6 km/h (1 Bft)
11.04.2006 19:00 3,5 C 64 % 0,0 l/m SW 1,7 km/h (1 Bft)
11.04.2006 20:00 1,6 C 75 % 0,0 l/m S 1,3 km/h (1 Bft)
11.04.2006 21:00 1,3 C 86 % 0,0 l/m SW 12,2 km/h (2 Bft)
11.04.2006 22:00 0,9 C 87 % 0,0 l/m S-SW 7,3 km/h (2 Bft)
11.04.2006 23:00 0,3 C 92 % 1,0 l/m S-SW 4,2 km/h (1 Bft)
12.04.2006 00:00 0,6 C 96 % 0,0 l/m S-SW 13,7 km/h (3 Bft)
12.04.2006 01:00 0,6 C 95 % 0,0 l/m S-SW 8,1 km/h (2 Bft)
12.04.2006 02:00 0,2 C 94 % 0,0 l/m S-SO 2,0 km/h (1 Bft)
12.04.2006 03:00 0,1 C 95 % 0,0 l/m S-SW 9,0 km/h (2 Bft)
12.04.2006 04:00 0,4 C 89 % 0,0 l/m S-SW 13,9 km/h (3 Bft)
12.04.2006 05:00 0,5 C 86 % 0,0 l/m S-SW 15,4 km/h (3 Bft)
12.04.2006 06:00 0,4 C 90 % 0,0 l/m S-SW 3,0 km/h (1 Bft)
12.04.2006 07:00 0,3 C 94 % 0,0 l/m N 0,0 km/h (0 Bft)
12.04.2006 08:00 0,5 C 98 % 0,0 l/m N 0,0 km/h (0 Bft)
12.04.2006 09:00 0,8 C 100 % 0,0 l/m S 12,1 km/h (2 Bft)
12.04.2006 10:00 1,3 C 99 % 0,0 l/m S-SW 14,4 km/h (3 Bft)
12.04.2006 11:00 2,0 C 94 % 1,0 l/m SW 15,8 km/h (3 Bft)
12.04.2006 12:00 2,7 C 87 % 1,0 l/m S-SW 18,8 km/h (3 Bft)
12.04.2006 13:00 2,8 C 88 % 1,0 l/m SW 17,7 km/h (3 Bft)
12.04.2006 14:00 3,1 C 88 % 1,0 l/m SW 18,0 km/h (3 Bft)
12.04.2006 15:00 3,2 C 87 % 0,0 l/m W-SW 15,7 km/h (3 Bft)
12.04.2006 16:00 3,8 C 86 % 0,0 l/m W-SW 13,3 km/h (3 Bft)
12.04.2006 17:00 4,5 C 80 % 0,0 l/m S-SW 16,6 km/h (3 Bft)
12.04.2006 18:00 4,1 C 80 % 0,0 l/m SW 13,7 km/h (3 Bft)
12.04.2006 19:00 3,9 C 83 % 0,0 l/m W-SW 11,7 km/h (2 Bft)
12.04.2006 20:00 3,6 C 86 % 0,0 l/m W-SW 11,2 km/h (2 Bft)
12.04.2006 21:00 3,4 C 91 % 0,0 l/m S-SW 9,2 km/h (2 Bft)
12.04.2006 22:00 2,8 C 93 % 0,0 l/m S-SW 6,1 km/h (2 Bft)
12.04.2006 23:00 2,8 C 96 % 0,0 l/m S-SW 5,7 km/h (1 Bft)
13.04.2006 00:00 2,6 C 96 % 0,0 l/m NO 2,1 km/h (1 Bft)
13.04.2006 01:00 2,1 C 96 % 0,0 l/m S 1,4 km/h (1 Bft)
13.04.2006 02:00 1,8 C 98 % 0,0 l/m S-SW 0,5 km/h (0 Bft)
13.04.2006 03:00 1,7 C 99 % 0,0 l/m O-SO 1,8 km/h (1 Bft)
13.04.2006 04:00 2,1 C 100 % 0,0 l/m S-SW 5,9 km/h (2 Bft)
13.04.2006 05:00 2,5 C 100 % 0,0 l/m W-SW 8,0 km/h (2 Bft)
13.04.2006 06:00 2,7 C 100 % 0,0 l/m W-SW 9,5 km/h (2 Bft)
13.04.2006 07:00 3,1 C 96 % 0,0 l/m SW 11,7 km/h (2 Bft)
13.04.2006 08:00 3,9 C 90 % 0,0 l/m SW 14,4 km/h (3 Bft)
13.04.2006 09:00 5,2 C 85 % 0,0 l/m SW 15,4 km/h (3 Bft)
13.04.2006 10:00 6,4 C 75 % 0,0 l/m SW 18,9 km/h (3 Bft)
13.04.2006 11:00 7,2 C 69 % 0,0 l/m W-SW 18,2 km/h (3 Bft)
13.04.2006 12:00 8,0 C 61 % 0,0 l/m W-SW 21,0 km/h (4 Bft)
13.04.2006 13:00 7,4 C 65 % 0,0 l/m SW 22,3 km/h (4 Bft)
13.04.2006 14:00 7,3 C 66 % 0,0 l/m S-SW 18,2 km/h (3 Bft)
13.04.2006 15:00 7,8 C 61 % 0,0 l/m SW 22,5 km/h (4 Bft)
13.04.2006 16:00 7,0 C 73 % 0,0 l/m W-SW 21,8 km/h (4 Bft)
13.04.2006 17:00 6,3 C 83 % 1,0 l/m SW 19,2 km/h (3 Bft)
13.04.2006 18:00 6,1 C 85 % 0,0 l/m SW 19,3 km/h (3 Bft)
13.04.2006 19:00 5,5 C 91 % 0,0 l/m SW 18,9 km/h (3 Bft)
13.04.2006 20:00 5,6 C 90 % 0,0 l/m SW 13,4 km/h (3 Bft)
13.04.2006 21:00 5,5 C 92 % 0,0 l/m SW 17,4 km/h (3 Bft)
13.04.2006 22:00 5,3 C 95 % 0,0 l/m SW 15,6 km/h (3 Bft)
13.04.2006 23:00 5,9 C 96 % 0,0 l/m SW 19,2 km/h (3 Bft)
14.04.2006 00:00 6,2 C 95 % 0,0 l/m SW 19,4 km/h (3 Bft)
14.04.2006 01:00 6,4 C 91 % 0,0 l/m SW 19,0 km/h (3 Bft)
14.04.2006 02:00 6,6 C 89 % 0,0 l/m SW 17,1 km/h (3 Bft)
14.04.2006 03:00 6,9 C 88 % 0,0 l/m SW 18,1 km/h (3 Bft)
14.04.2006 04:00 6,9 C 88 % 0,0 l/m W-SW 15,3 km/h (3 Bft)
14.04.2006 05:00 7,0 C 88 % 0,0 l/m SW 17,5 km/h (3 Bft)
14.04.2006 06:00 7,0 C 87 % 0,0 l/m S-SW 20,3 km/h (4 Bft)
14.04.2006 07:00 7,0 C 89 % 0,0 l/m SW 18,7 km/h (3 Bft)
14.04.2006 08:00 7,5 C 88 % 0,0 l/m SW 16,8 km/h (3 Bft)
14.04.2006 09:00 8,5 C 79 % 0,0 l/m W-SW 20,0 km/h (4 Bft)
14.04.2006 10:00 9,0 C 74 % 0,0 l/m SW 24,5 km/h (4 Bft)
14.04.2006 11:00 9,8 C 69 % 0,0 l/m SW 25,9 km/h (4 Bft)
14.04.2006 12:00 10,7 C 62 % 0,0 l/m W-SW 25,6 km/h (4 Bft)
14.04.2006 13:00 11,3 C 56 % 0,0 l/m W-SW 21,9 km/h (4 Bft)
14.04.2006 14:00 12,4 C 49 % 0,0 l/m W-SW 19,2 km/h (3 Bft)
14.04.2006 15:00 13,2 C 49 % 0,0 l/m S-SW 21,3 km/h (4 Bft)
14.04.2006 16:00 13,1 C 49 % 0,0 l/m W 15,1 km/h (3 Bft)
14.04.2006 17:00 13,4 C 48 % 0,0 l/m W 14,1 km/h (3 Bft)
14.04.2006 18:00 13,4 C 48 % 0,0 l/m W 14,5 km/h (3 Bft)
14.04.2006 19:00 12,0 C 51 % 0,0 l/m W 11,7 km/h (2 Bft)
14.04.2006 20:00 10,2 C 55 % 0,0 l/m W 5,5 km/h (1 Bft)
14.04.2006 21:00 8,7 C 63 % 0,0 l/m W-NW 1,4 km/h (1 Bft)
14.04.2006 22:00 8,0 C 72 % 0,0 l/m N 0,0 km/h (0 Bft)
14.04.2006 23:00 7,9 C 75 % 0,0 l/m N 0,0 km/h (0 Bft)
15.04.2006 00:00 7,8 C 78 % 0,0 l/m N 0,0 km/h (0 Bft)
15.04.2006 01:00 7,6 C 78 % 0,0 l/m N 0,0 km/h (0 Bft)
15.04.2006 02:00 6,6 C 80 % 0,0 l/m N 0,0 km/h (0 Bft)
15.04.2006 03:00 5,1 C 83 % 0,0 l/m N 0,0 km/h (0 Bft)
15.04.2006 04:00 4,1 C 87 % 0,0 l/m N 0,0 km/h (0 Bft)
15.04.2006 05:00 3,7 C 90 % 0,0 l/m NW 3,9 km/h (1 Bft)
15.04.2006 06:00 3,5 C 92 % 0,0 l/m N 0,0 km/h (0 Bft)
15.04.2006 07:00 3,9 C 95 % 0,0 l/m W-NW 0,2 km/h (0 Bft)
15.04.2006 08:00 5,9 C 96 % 0,0 l/m NW 3,5 km/h (1 Bft)
15.04.2006 09:00 8,7 C 81 % 0,0 l/m N-NW 6,1 km/h (2 Bft)
15.04.2006 10:00 11,2 C 65 % 0,0 l/m N 8,9 km/h (2 Bft)
15.04.2006 11:00 13,3 C 58 % 0,0 l/m N-NO 11,0 km/h (2 Bft)
15.04.2006 12:00 15,1 C 51 % 0,0 l/m NO 13,3 km/h (3 Bft)
15.04.2006 13:00 16,1 C 47 % 0,0 l/m N-NO 12,0 km/h (2 Bft)
15.04.2006 14:00 16,2 C 47 % 0,0 l/m N-NO 7,2 km/h (2 Bft)
15.04.2006 15:00 15,9 C 51 % 0,0 l/m W 8,9 km/h (2 Bft)
15.04.2006 16:00 14,3 C 59 % 0,0 l/m W-SW 13,1 km/h (3 Bft)
15.04.2006 17:00 13,2 C 59 % 0,0 l/m W 21,4 km/h (4 Bft)
15.04.2006 18:00 11,0 C 80 % 1,0 l/m W 10,2 km/h (2 Bft)
15.04.2006 19:00 10,6 C 85 % 0,0 l/m S-SO 2,3 km/h (1 Bft)
15.04.2006 20:00 10,1 C 90 % 0,0 l/m S 6,4 km/h (2 Bft)
15.04.2006 21:00 9,7 C 95 % 0,0 l/m S-SW 11,8 km/h (2 Bft)
15.04.2006 22:00 9,4 C 97 % 2,0 l/m S-SW 14,8 km/h (3 Bft)
15.04.2006 23:00 9,2 C 100 % 0,0 l/m SW 17,0 km/h (3 Bft)
16.04.2006 00:00 9,3 C 100 % 1,0 l/m S-SW 15,9 km/h (3 Bft)
16.04.2006 01:00 9,4 C 99 % 0,0 l/m S-SW 17,1 km/h (3 Bft)
16.04.2006 02:00 9,5 C 97 % 1,0 l/m SW 18,6 km/h (3 Bft)
16.04.2006 03:00 9,1 C 96 % 1,0 l/m S-SW 18,6 km/h (3 Bft)
16.04.2006 04:00 8,6 C 98 % 1,0 l/m S-SW 18,8 km/h (3 Bft)
16.04.2006 05:00 8,8 C 95 % 0,0 l/m S-SW 18,6 km/h (3 Bft)
16.04.2006 06:00 9,1 C 87 % 0,0 l/m SW 20,9 km/h (4 Bft)
16.04.2006 07:00 9,0 C 85 % 0,0 l/m W-SW 17,6 km/h (3 Bft)
16.04.2006 08:00 9,4 C 84 % 0,0 l/m SW 20,1 km/h (4 Bft)
16.04.2006 09:00 10,2 C 83 % 0,0 l/m SW 20,0 km/h (4 Bft)
16.04.2006 10:00 12,4 C 65 % 0,0 l/m W-SW 25,7 km/h (4 Bft)
16.04.2006 11:00 13,0 C 57 % 0,0 l/m SW 23,0 km/h (4 Bft)
16.04.2006 12:00 13,5 C 53 % 0,0 l/m SW 26,8 km/h (4 Bft)
16.04.2006 13:00 13,7 C 52 % 1,0 l/m W-SW 22,2 km/h (4 Bft)
16.04.2006 14:00 12,4 C 68 % 0,0 l/m W-SW 20,3 km/h (4 Bft)
16.04.2006 15:00 13,4 C 52 % 0,0 l/m W 27,1 km/h (4 Bft)
16.04.2006 16:00 13,7 C 49 % 0,0 l/m W-SW 24,4 km/h (4 Bft)
16.04.2006 17:00 13,3 C 50 % 0,0 l/m W 17,6 km/h (3 Bft)
16.04.2006 18:00 11,3 C 67 % 0,0 l/m W 11,9 km/h (2 Bft)
16.04.2006 19:00 10,6 C 74 % 0,0 l/m W-SW 11,4 km/h (2 Bft)
16.04.2006 20:00 10,0 C 70 % 0,0 l/m W 13,7 km/h (3 Bft)
16.04.2006 21:00 9,5 C 74 % 0,0 l/m W-SW 10,3 km/h (2 Bft)
16.04.2006 22:00 9,1 C 80 % 0,0 l/m S 6,5 km/h (2 Bft)
16.04.2006 23:00 8,6 C 91 % 0,0 l/m S-SW 11,2 km/h (2 Bft)
Min-Datum _ 12.04.06 14.04.06 - - 10.04.06
_ Min-Zeit 03:17 17:42 - - 00:00
Minimum _ -0,1 C 46 % - - 0,0 km/h (0 Bft)
Max-Datum _ 15.04.06 10.04.06 11.04.06 - 16.04.06
_ Max-Zeit 13:40 04:07 13:07 - 11:06
Maximum _ 16,4 C 100 % 3,0 l/m - 50,4 km/h
SW (7 Bft)
Durchschnitt _ 5,8 C 84 % #38,0 l/m SW 11,4 km/h (2 Bft)

Durchschnitt Minimum Temp.5,5 C
Durchschnitt Maximum Temp.6,1 C